Location: Anmer
(52.8333°N, 0.5833°E)
Time: 20:06:25
(UTC+00:00)

Cosmos 2219 Rocket - Pass Details

Date: 15 May 2026
Orbit: 826 x 846 km, 71.0° (Epoch: 8 June)

Event Time Altitude Azimuth Distance (km) Brightness Sun altitude
Rises 23:40:57 0° 316° (NW) 3,408 6.1 -18.1°
Reaches altitude 10° 23:44:47 10° 290° (WNW) 2,470 4.9 -18.1°
Maximum altitude 23:47:15 13° 264° (W) 2,257 4.4 -18.1°
Drops below altitude 10° 23:49:43 10° 238° (WSW) 2,466 4.3 -18.1°
Enters shadow 23:49:54 10° 237° (WSW) 2,498 4.3 -18.1°
